Theta_e
302 302 303 303 303 303 302 302 303 303 304 310 315 317 318 319 320 320 320 319 320 321 320 319 320 320 318 320 318 316 315 315 317 317 315 314 313 309 297 295 295 294 294
302 303 303 304 304 303 303 302 301 303 303 304 312 316 318 319 319 319 318 319 320 319 320 320 319 317 317 316 317 315 315 317 317 316 314 312 308 296 295 294 294 294 294
302 303 304 304 304 303 303 302 301 302 303 304 310 314 317 318 319 319 319 318 318 319 320 319 319 317 316 316 316 315 316 316 315 315 314 306 295 295 294 294 294 294 294
302 303 304 305 304 304 303 303 303 303 305 308 310 314 317 318 317 318 317 316 318 318 317 317 316 316 315 315 316 316 315 311 302 298 296 296 295 294 294 294 294 293 293
302 304 304 304 305 304 304 304 305 305 307 309 311 313 314 315 313 315 316 317 316 316 316 313 314 314 314 314 311 308 300 296 296 296 295 294 294 294 294 294 293 293 293
302 303 304 304 305 305 305 306 306 307 308 310 312 312 312 312 312 313 313 313 313 314 313 313 312 313 312 308 300 296 296 295 295 294 294 294 294 294 293 293 293 293 293
303 304 304 303 304 305 306 306 306 308 308 308 309 311 312 311 312 312 312 311 311 310 311 310 310 309 303 296 295 295 295 294 294 294 294 294 294 293 293 293 293 293 293
304 305 304 302 303 303 304 306 306 307 308 308 309 310 310 312 311 312 310 309 309 309 308 303 297 296 295 295 295 295 294 294 294 294 294 294 293 293 293 293 293 293 292
302 302 300 297 298 303 304 304 305 307 307 307 307 307 308 308 308 308 308 308 307 303 299 296 295 295 294 294 294 294 294 294 294 294 294 293 293 293 293 293 293 292 292
300 300 298 295 295 298 304 304 303 304 304 305 305 305 306 306 306 306 305 302 302 297 295 295 294 294 294 294 294 293 294 294 293 293 293 293 293 293 292 292 292 292 292
298 298 296 294 294 294 295 302 301 303 303 303 304 304 302 301 300 299 299 297 295 294 294 294 294 294 294 294 294 293 293 293 293 293 293 293 292 292 292 292 292 292 292
293 293 293 293 293 293 293 294 298 300 302 302 303 303 299 297 296 296 295 294 294 294 293 293 293 293 294 294 294 293 293 293 293 293 293 293 292 292 292 292 292 292 292
295 293 293 292 292 293 292 292 293 294 296 298 300 301 298 296 294 294 294 294 294 293 293 293 293 293 293 293 293 293 293 293 293 293 292 292 292 292 292 292 291 291 291
295 294 294 293 293 293 292 292 292 292 293 293 294 294 293 294 293 293 293 293 293 293 293 293 293 293 293 293 293 293 293 293 293 292 292 292 291 292 291 291 291 291 291
296 295 295 294 293 293 293 293 292 292 292 292 292 292 293 293 293 293 293 293 293 293 293 293 293 293 293 293 293 293 293 293 293 292 292 291 291 291 291 291 291 290 290
300 298 296 295 294 294 293 293 293 293 293 293 292 293 292 292 293 292 292 293 293 293 293 293 293 293 293 293 293 293 293 293 292 292 292 291 291 291 291 291 290 290 290
301 301 300 297 296 295 294 294 293 293 292 293 293 292 292 292 292 292 292 292 292 292 293 293 293 293 292 292 292 292 292 292 292 292 291 291 291 291 290 290 290 290 290
300 301 300 300 298 296 295 294 294 293 293 293 292 292 292 292 291 291 291 291 292 292 292 292 292 292 292 292 292 292 291 291 291 291 291 291 291 290 290 290 290 289 289
301 299 299 300 300 300 298 296 295 294 293 293 293 292 292 291 291 291 291 291 292 292 292 293 292 292 292 291 291 291 291 291 291 290 290 290 290 289 289 289 289 288 288
305 304 300 299 299 299 299 299 297 296 295 294 294 294 292 291 291 291 291 291 291 292 292 292 292 292 291 291 291 290 290 290 290 290 290 289 289 289 288 288 288 288 288
303 303 302 301 300 298 297 297 299 298 297 295 295 294 294 292 292 291 291 291 291 292 292 292 291 291 291 291 291 290 290 290 290 290 289 289 288 288 288 287 287 287 287
303 303 301 300 300 297 296 296 296 297 298 297 296 295 297 296 294 293 293 293 292 292 291 291 291 291 291 290 290 290 290 290 289 289 289 289 288 288 287 287 287 287 287
301 301 300 299 298 298 297 296 295 296 297 298 298 296 295 295 298 298 296 294 293 293 292 292 292 291 291 290 290 290 290 290 290 289 288 288 288 288 287 287 287 286 286
300 300 300 298 297 297 297 296 296 296 295 295 295 296 297 297 297 296 297 298 299 299 297 294 293 292 292 291 291 290 290 290 289 289 288 288 288 287 287 287 287 286 286
299 298 297 297 296 296 296 296 295 294 294 294 294 293 294 294 295 295 297 297 299 299 299 298 295 293 292 292 292 291 290 290 289 289 288 288 287 287 287 286 286 286 286
297 296 295 293 293 294 294 294 293 293 292 292 292 292 292 292 292 293 294 295 296 296 296 296 295 296 294 293 292 291 291 291 290 289 288 287 287 287 287 286 286 286 285
Wind_Speed
7 7 7 7 6 6 6 6 10 12 15 15 15 11 10 9 8 10 10 8 10 9 9 6 3 2 4 1 2 4 4 8 14 12 13 11 10 9 10 11 12 13 16
6 9 8 8 6 5 5 4 4 8 11 12 13 14 11 12 12 6 9 10 7 7 7 9 9 9 5 5 8 9 11 11 11 10 10 9 6 6 7 8 9 11 14
4 7 8 9 9 8 6 4 2 3 8 10 9 11 11 10 12 11 7 7 7 7 6 7 9 6 6 7 7 7 7 7 7 8 8 6 3 4 5 5 6 9 13
5 7 8 8 8 9 8 8 7 7 8 9 10 10 12 13 9 7 9 7 6 7 6 6 5 4 4 5 5 5 5 6 5 5 6 5 2 1 2 3 3 5 11
4 6 7 8 9 8 9 10 10 10 11 11 11 9 9 7 6 8 6 6 6 5 4 2 2 3 3 3 3 2 3 3 4 5 6 7 6 4 4 5 5 3 9
3 5 7 8 9 9 9 8 11 10 11 12 12 12 10 7 7 8 8 7 7 4 3 5 5 4 4 3 3 5 6 7 7 7 8 8 9 8 8 8 9 9 5
4 4 6 7 7 7 8 8 9 9 9 8 8 8 8 8 8 9 10 8 4 3 4 6 4 6 6 7 7 7 7 8 9 9 7 9 10 10 10 10 11 13 13
4 4 3 3 2 5 6 7 8 8 8 7 9 10 9 10 9 8 6 5 4 5 3 4 6 9 10 9 10 10 11 11 11 9 9 10 10 11 12 11 9 11 13
4 2 3 3 2 3 4 5 6 6 7 8 8 8 7 8 7 7 6 7 7 7 8 9 9 10 12 12 10 9 10 12 11 10 9 10 11 12 12 13 10 7 14
3 2 2 3 3 3 4 4 4 6 7 9 7 6 8 7 5 8 8 8 8 7 8 9 12 12 12 11 12 11 11 12 12 11 11 10 11 12 11 10 12 12 7
6 4 2 1 2 1 1 3 3 7 7 7 6 5 5 6 7 8 8 9 9 8 9 10 11 11 12 12 12 12 12 11 12 11 10 10 10 10 9 11 12 13 13
7 8 7 5 4 4 4 5 5 6 8 8 9 9 7 7 8 8 8 9 10 11 10 12 11 11 12 12 12 13 13 12 11 10 10 9 9 8 8 9 10 11 12
8 9 9 8 7 7 6 7 8 9 9 10 11 12 11 10 11 11 11 11 12 13 14 13 13 13 13 14 14 14 13 11 10 9 9 8 7 7 6 6 7 8 9
10 11 11 11 11 9 10 10 11 12 12 12 12 12 12 13 13 13 12 12 12 13 14 14 14 14 15 15 15 13 12 11 11 10 9 8 7 6 5 5 5 6 6
14 15 15 14 14 13 12 12 13 13 14 13 12 12 12 11 10 12 13 13 13 14 15 16 16 15 15 15 15 14 13 13 12 11 10 9 8 7 6 5 4 4 4
20 20 18 18 17 17 16 16 16 16 16 16 17 15 16 16 17 17 17 17 19 19 19 18 18 18 18 17 16 16 15 15 14 13 13 12 11 10 10 9 7 6 5
26 23 23 23 22 22 22 21 20 18 20 19 19 18 18 19 20 20 20 21 22 23 23 22 22 22 20 20 20 19 17 17 18 17 16 15 15 15 14 13 11 10 9
29 29 29 28 28 27 26 25 24 24 24 22 22 22 21 22 23 23 24 26 27 28 27 26 25 24 24 24 22 22 22 23 23 21 20 20 19 19 18 17 16 14 13
28 31 32 32 32 32 31 31 30 30 29 27 25 25 24 25 26 28 28 31 31 32 30 28 26 25 26 26 25 25 26 26 24 24 24 23 22 22 21 21 20 18 16
32 33 32 32 34 34 36 37 36 35 34 32 30 27 28 28 29 32 32 33 34 33 31 30 28 26 27 28 28 28 28 28 28 28 27 26 26 25 24 24 23 21 17
28 31 33 34 36 35 36 38 38 39 39 37 34 31 29 33 33 32 32 33 33 34 34 31 29 27 27 29 30 31 30 29 29 28 27 27 27 27 26 26 26 24 22
26 29 31 33 33 35 35 34 35 39 41 41 39 35 33 36 36 36 35 35 36 36 34 33 30 30 29 30 31 31 31 29 29 28 28 28 27 27 27 28 29 28 27
22 25 27 29 29 30 31 31 32 33 36 39 39 40 39 42 40 39 38 35 36 36 36 38 36 34 33 32 32 32 33 32 29 27 27 27 28 28 29 30 30 31 30
20 24 27 29 28 28 29 29 29 31 32 33 34 36 39 40 43 42 39 37 40 39 39 40 40 38 35 34 35 34 34 32 31 30 29 30 29 29 30 30 31 31 30
20 20 23 26 27 26 27 27 28 27 29 29 30 31 31 33 35 38 40 38 38 39 42 43 39 40 39 37 36 35 34 34 33 32 32 32 32 31 31 32 32 32 33
17 18 19 22 24 23 23 23 24 24 25 24 23 25 26 27 30 31 33 36 37 38 36 35 33 36 38 37 37 36 34 34 35 36 35 34 35 34 34 34 34 35 35
Wind_Direction
1 13 16 8 3 359 329 290 246 231 225 223 218 214 219 215 213 213 218 224 238 235 243 240 259 211 55 99 138 292 161 220 247 244 249 256 274 302 315 324 341 352 0
13 18 23 11 16 14 358 331 277 225 206 207 214 208 209 215 223 214 208 214 207 222 216 224 199 199 184 182 161 181 209 241 238 244 238 251 274 303 321 343 349 359 5
56 27 30 30 28 32 32 33 69 150 173 176 183 185 191 189 182 179 186 196 195 184 207 207 196 201 227 218 203 207 254 243 242 243 222 231 242 326 341 339 5 10 8
47 41 42 48 46 49 53 68 80 99 124 130 156 165 176 183 167 176 179 175 189 193 187 188 197 184 214 226 211 220 248 261 232 206 181 155 144 183 2 24 47 13 14
68 58 59 57 66 68 74 85 99 116 124 135 151 164 157 149 159 172 177 180 179 180 185 224 208 220 200 183 212 233 211 166 161 166 157 139 131 110 110 82 71 71 36
107 72 75 68 67 76 81 92 102 115 134 139 145 146 157 168 183 170 170 160 156 159 192 169 185 189 202 207 176 160 149 144 141 147 136 126 124 102 77 84 74 70 60
121 88 77 63 69 78 89 95 107 116 131 138 141 136 150 152 158 154 159 140 122 129 142 161 170 192 180 164 153 145 141 136 132 127 124 116 98 88 77 77 71 57 60
103 96 47 58 74 78 82 89 108 123 129 136 148 154 156 158 166 175 180 161 217 215 205 178 158 158 156 155 157 156 154 141 124 127 117 104 98 84 75 65 66 63 65
137 96 45 49 77 160 117 109 112 145 151 150 147 155 168 175 193 186 177 185 212 196 180 165 165 157 151 150 142 146 142 133 133 123 116 103 88 78 71 65 61 73 64
186 155 63 48 74 118 181 209 217 184 163 155 142 144 185 186 184 173 159 168 187 193 179 174 164 161 151 153 151 147 146 140 134 132 121 107 95 84 78 78 72 69 71
271 264 239 144 119 96 135 178 177 194 193 173 176 210 201 188 182 184 178 183 181 180 174 177 173 165 160 164 163 158 154 152 148 138 130 119 108 100 89 75 67 63 64
274 275 272 264 231 192 194 192 197 196 206 210 215 222 214 193 191 190 186 183 179 169 174 178 175 175 176 178 176 177 172 162 157 151 143 135 123 112 96 83 73 66 65
263 269 270 266 258 255 225 213 203 205 209 208 206 208 208 207 197 195 192 189 187 183 183 184 185 186 187 188 190 188 180 176 170 171 167 154 143 128 113 97 85 75 71
258 259 263 262 256 244 243 236 223 217 214 214 214 212 209 203 203 199 200 201 201 201 200 199 197 197 195 196 198 195 192 191 191 192 189 180 174 171 156 139 113 95 87
264 258 257 256 256 255 249 243 236 226 223 223 220 221 219 216 212 211 213 214 213 214 214 211 210 208 207 207 206 205 206 207 209 210 208 206 203 202 203 191 168 148 132
259 258 260 260 258 258 252 248 245 243 240 232 224 225 222 219 221 219 221 223 224 223 221 220 217 216 215 215 215 216 216 217 220 223 224 222 220 221 222 217 209 198 188
260 261 260 259 257 255 256 257 252 248 245 241 243 239 233 234 235 233 232 233 234 232 229 225 225 225 224 224 223 224 224 225 226 228 230 231 231 231 232 228 221 218 213
262 260 258 258 258 258 259 259 259 255 252 251 247 244 244 243 243 243 241 240 239 241 238 236 233 232 232 235 234 232 231 232 231 230 232 234 235 234 234 232 227 222 221
267 263 262 259 259 260 258 255 256 255 254 254 250 250 247 245 245 247 247 249 250 250 250 248 245 244 244 245 243 241 239 239 238 236 235 236 237 238 238 233 228 224 223
263 263 262 261 260 257 256 256 255 255 256 253 253 253 252 252 250 252 253 255 259 262 262 263 261 254 251 249 249 248 247 246 246 245 242 239 238 239 237 235 233 230 229
260 261 262 261 261 263 262 259 258 257 256 256 256 257 254 256 256 256 259 260 263 266 267 268 267 264 255 253 251 250 250 250 250 249 248 245 243 241 238 235 232 228 224
266 264 261 260 261 262 265 265 259 259 258 257 257 254 253 256 259 259 259 261 264 266 268 268 264 260 256 253 253 253 253 252 252 252 250 247 244 242 237 234 232 229 226
271 271 269 265 262 262 263 263 264 264 263 262 261 260 255 257 257 258 260 262 265 269 269 267 265 261 258 256 254 253 253 254 255 254 252 248 244 242 238 235 233 230 228
270 273 272 268 265 264 264 266 268 268 267 267 267 265 263 261 261 261 260 260 261 263 267 268 267 264 259 255 254 253 252 252 250 248 246 245 242 239 237 235 233 232 230
268 268 271 271 270 269 268 267 269 269 271 269 271 271 269 267 263 261 261 259 263 267 267 261 261 260 257 254 251 250 249 247 246 245 242 242 242 240 238 236 233 230 228
255 259 262 266 267 268 268 268 269 271 272 275 275 274 273 270 268 266 262 264 266 268 264 263 260 260 258 253 250 248 246 245 243 242 240 239 238 238 236 235 233 231 229